STARLINK-36568, 68017

Orbit data source: Space-Track

STARLINK-36568, 68017 is a payload satellite owned by SpaceX/Seattle (US) in SSO that was launched on Sun, 01 Mar 2026 UTC via an FALCON 9 launch vehicle from the Air Force Western Test Range (AFWTR). Payload-class satellites include a variety of spacecraft equipped with specific instruments for various scientific and technological missions. These include communications satellites like Starlink; space stations such as the ISS; scientific satellites like the Hubble; Earth observation satellites from companies like Planet Labs, Umbra, and HawkEye 360; GPS; miniature CubeSats for education and research; and military/defense satellites.

Loading next visibility...
Identifier
68017, 2026-040C
Orbit
SSO
Country
Flag of USUS
Related business
Manufacturer
SpaceX/Seattle
Mission
Operational Commercial Communications
Bus & Motor
STARLINK V2MO, Unknown motor
Mass
575 kg wet, ~530 kg dry
Launch date (UTC)
2026-03-01 (4 months ago)
Launch vehicle
FALCON 9
Launch site
Air Force Western Test Range (AFWTR)
Object type
Payload
Rocket body
Debris
Shape & HBR
Box + 2 Pan, 17.7 m
Radar Cross Section
36.964 m², Large (>1 m²)

Expand to show TLE details & history
Last TLE update: 11 hours ago

TLE from 11 hours ago
0 STARLINK-36568
1 68017U 26040C   26171.42332708  .00013186  00000-0  41011-3 0  9999
2 68017  97.2837 120.0164 0001635 110.9063 249.2355 15.33439041 17202
Epoch: 2026-06-20T10:09Z
TLE epoch observation values (Epoch: 2026-06-20T10:09:35.459Z)
Latitude
-0.00003°
Longitude
58.98049°
Altitude
469.07 km
Speed
7.631 km/s
True Right ascension
08h 00m 03s
True Declination
0° 00' 00"
Sunlit
Object was in daylight at epoch
Visualization orbit readout
Latitude
Unknown
Longitude
Unknown
Altitude
Unknown
Speed
Unknown
Apparent Right ascension
Unknown
Apparent Declination
Unknown
Sunlit
N/A
Visualization observer readout
Local Sidereal Time
08:32:41
Azimuth
Unknown
Elevation
Unknown
Doppler factor
Unknown
Orbital elements
Apogee altitude
463.622 km
Perigee altitude
461.385 km
Semi-major axis
6,840.641 km
Eccentricity
0.00016
Inclination
97.2837°
RAAN
120.0164°
Arg. of periapsis
110.9063°
True anomaly
249.21798°
Mean anomaly
249.2355°
Eccentric anomaly
249.22674°
Mean motion
3.83617 °/min
Orbital period
93.84 mins
BSTAR
0.00041011
Loading maneuver chart data...
Computing Atmospheric mass density...
Loading historical data...
Loading historical data...
Loading historical data...
Loading historical data...
Loading historical data...
Loading historical data...
Loading historical data...

Documentation

Showing up to 5 results
|